Météo par heure à Abadzekhskaya

Ce jour, 14 Avril, Mercredi

Heure Température Précipitation Vent Pression Humidité
00:00 +6°C° 1 mm 0 m/s 714 mmHg 98%
01:00 +6°C° 2.3 mm 0 m/s 714 mmHg 98%
02:00 +7°C° 2.3 mm 1 m/s 714 mmHg 98%
03:00 +7°C° 0 mm 1 m/s 714 mmHg 97%
04:00 +7°C° 0.3 mm 1 m/s 714 mmHg 97%
05:00 +7°C° 0.3 mm 1 m/s 714 mmHg 96%
06:00 +7°C° 0.3 mm 1 m/s 714 mmHg 96%
07:00 +8°C° 0 mm 1 m/s 714 mmHg 91%
08:00 +9°C° 0 mm 1 m/s 714 mmHg 85%
09:00 +10°C° 0 mm 1 m/s 714 mmHg 80%
10:00 +10°C° 0 mm 2 m/s 713 mmHg 75%
11:00 +12°C° 0 mm 2 m/s 713 mmHg 71%
12:00 +13°C° 0 mm 2 m/s 713 mmHg 66%
13:00 +13°C° 0.1 mm 2 m/s 713 mmHg 67%
14:00 +13°C° 0.1 mm 2 m/s 713 mmHg 69%
15:00 +13°C° 0 mm 2 m/s 713 mmHg 70%
16:00 +12°C° 0.2 mm 1 m/s 713 mmHg 74%
17:00 +12°C° 0.2 mm 1 m/s 713 mmHg 79%
18:00 +11°C° 0.2 mm 1 m/s 713 mmHg 83%
19:00 +10°C° 0 mm 1 m/s 713 mmHg 86%
20:00 +9°C° 0 mm 1 m/s 713 mmHg 89%
21:00 +8°C° 0 mm 1 m/s 713 mmHg 91%
22:00 +7°C° 0 mm 1 m/s 713 mmHg 91%
23:00 +7°C° 0 mm 1 m/s 713 mmHg 91%

Demain, 15 Avril, Jeudi

Heure Température Précipitation Vent Pression Humidité
00:00 +5°C° 0 mm 2 m/s 713 mmHg 90%
01:00 +5°C° 0 mm 2 m/s 713 mmHg 89%
02:00 +5°C° 0 mm 2 m/s 713 mmHg 88%
03:00 +5°C° 0 mm 2 m/s 713 mmHg 86%
04:00 +5°C° 0 mm 2 m/s 713 mmHg 84%
05:00 +5°C° 0 mm 2 m/s 713 mmHg 83%
06:00 +4°C° 0 mm 2 m/s 713 mmHg 81%
07:00 +8°C° 0 mm 1 m/s 713 mmHg 72%
08:00 +11°C° 0 mm 1 m/s 713 mmHg 64%
09:00 +12°C° 0 mm 0 m/s 713 mmHg 55%
10:00 +15°C° 0 mm 1 m/s 713 mmHg 51%
11:00 +16°C° 0 mm 1 m/s 713 mmHg 46%
12:00 +18°C° 0 mm 1 m/s 713 mmHg 42%
13:00 +18°C° 0 mm 1 m/s 713 mmHg 44%
14:00 +18°C° 0 mm 1 m/s 713 mmHg 46%
15:00 +18°C° 0 mm 1 m/s 713 mmHg 47%
16:00 +16°C° 0.1 mm 1 m/s 713 mmHg 56%
17:00 +15°C° 0.1 mm 1 m/s 713 mmHg 64%
18:00 +14°C° 0.1 mm 1 m/s 713 mmHg 72%
19:00 +12°C° 0 mm 1 m/s 713 mmHg 77%
20:00 +10°C° 0 mm 1 m/s 713 mmHg 82%
21:00 +9°C° 0 mm 1 m/s 713 mmHg 86%
22:00 +9°C° 0 mm 1 m/s 713 mmHg 86%
23:00 +8°C° 0 mm 1 m/s 713 mmHg 86%

Après-demain, 16 Avril, Vendredi

Heure Température Précipitation Vent Pression Humidité
00:00 +7°C° 0 mm 2 m/s 713 mmHg 86%
01:00 +7°C° 0 mm 2 m/s 713 mmHg 85%
02:00 +7°C° 0 mm 1 m/s 713 mmHg 84%
03:00 +7°C° 0 mm 1 m/s 713 mmHg 84%
04:00 +7°C° 0 mm 1 m/s 713 mmHg 83%
05:00 +7°C° 0 mm 1 m/s 713 mmHg 82%
06:00 +7°C° 0 mm 1 m/s 713 mmHg 81%
07:00 +9°C° 0.1 mm 1 m/s 713 mmHg 78%
08:00 +10°C° 0.1 mm 1 m/s 713 mmHg 76%
09:00 +11°C° 0.1 mm 0 m/s 714 mmHg 73%
10:00 +12°C° 0.2 mm 1 m/s 714 mmHg 76%
11:00 +12°C° 0.2 mm 2 m/s 714 mmHg 79%
12:00 +12°C° 0.2 mm 2 m/s 714 mmHg 82%
13:00 +10°C° 0.6 mm 2 m/s 714 mmHg 86%
14:00 +9°C° 0.6 mm 2 m/s 714 mmHg 89%
15:00 +9°C° 0.6 mm 2 m/s 714 mmHg 93%
16:00 +10°C° 0 mm 1 m/s 714 mmHg 92%
17:00 +10°C° 0 mm 1 m/s 714 mmHg 92%
18:00 +9°C° 0 mm 0 m/s 714 mmHg 92%
19:00 +9°C° 0 mm 1 m/s 715 mmHg 93%
20:00 +9°C° 0 mm 1 m/s 715 mmHg 94%
21:00 +8°C° 0 mm 1 m/s 715 mmHg 96%
22:00 +8°C° 0 mm 1 m/s 715 mmHg 95%
23:00 +8°C° 0 mm 1 m/s 715 mmHg 95%

17 Avril, Samedi

Heure Température Précipitation Vent Pression Humidité
00:00 +7°C° 0 mm 0 m/s 715 mmHg 95%
01:00 +8°C° 1.3 mm 1 m/s 715 mmHg 96%
02:00 +8°C° 1.3 mm 1 m/s 715 mmHg 97%
03:00 +8°C° 1.3 mm 1 m/s 715 mmHg 98%
04:00 +8°C° 1 mm 1 m/s 715 mmHg 98%
05:00 +8°C° 1 mm 1 m/s 715 mmHg 98%
06:00 +8°C° 1 mm 1 m/s 716 mmHg 97%
07:00 +8°C° 0.1 mm 1 m/s 716 mmHg 96%
08:00 +8°C° 0.1 mm 1 m/s 716 mmHg 95%
09:00 +8°C° 0.1 mm 0 m/s 716 mmHg 94%
10:00 +8°C° 0 mm 0 m/s 716 mmHg 91%
11:00 +9°C° 0 mm 0 m/s 716 mmHg 88%
12:00 +10°C° 0 mm 0 m/s 716 mmHg 86%
13:00 +9°C° 0.1 mm 0 m/s 716 mmHg 86%
14:00 +10°C° 0.1 mm 1 m/s 716 mmHg 87%
15:00 +10°C° 0.1 mm 1 m/s 716 mmHg 88%
16:00 +10°C° 0.2 mm 1 m/s 716 mmHg 89%
17:00 +10°C° 0.2 mm 1 m/s 716 mmHg 91%
18:00 +10°C° 0.2 mm 1 m/s 716 mmHg 93%
19:00 +10°C° 0 mm 1 m/s 716 mmHg 93%
20:00 +9°C° 0 mm 1 m/s 716 mmHg 94%
21:00 +9°C° 0 mm 1 m/s 716 mmHg 95%
22:00 +9°C° 0 mm 1 m/s 715 mmHg 94%
23:00 +9°C° 0 mm 1 m/s 715 mmHg 94%

18 Avril, Dimanche

Heure Température Précipitation Vent Pression Humidité
00:00 +8°C° 0 mm 1 m/s 715 mmHg 94%
01:00 +8°C° 0 mm 1 m/s 715 mmHg 93%
02:00 +7°C° 0 mm 0 m/s 714 mmHg 93%
03:00 +8°C° 0 mm 0 m/s 714 mmHg 93%
04:00 +8°C° 0.1 mm 1 m/s 714 mmHg 94%
05:00 +8°C° 0.1 mm 1 m/s 714 mmHg 95%
06:00 +8°C° 0.1 mm 1 m/s 714 mmHg 95%
07:00 +9°C° 0.2 mm 1 m/s 713 mmHg 94%
08:00 +10°C° 0.2 mm 1 m/s 713 mmHg 92%
09:00 +10°C° 0.2 mm 1 m/s 713 mmHg 91%
10:00 +10°C° 0.1 mm 2 m/s 713 mmHg 88%
11:00 +12°C° 0.1 mm 2 m/s 713 mmHg 86%
12:00 +13°C° 0.1 mm 2 m/s 713 mmHg 84%
13:00 +12°C° 0.2 mm 2 m/s 713 mmHg 87%
14:00 +10°C° 0.2 mm 2 m/s 713 mmHg 91%
15:00 +10°C° 0.2 mm 2 m/s 713 mmHg 94%
16:00 +9°C° 0.1 mm 2 m/s 714 mmHg 95%
17:00 +8°C° 0.1 mm 2 m/s 714 mmHg 96%
18:00 +8°C° 0.1 mm 2 m/s 714 mmHg 97%
19:00 +8°C° 0.1 mm 2 m/s 714 mmHg 96%
20:00 +7°C° 0.1 mm 2 m/s 715 mmHg 96%
21:00 +7°C° 0.1 mm 2 m/s 715 mmHg 96%
22:00 +7°C° 0 mm 2 m/s 715 mmHg 95%
23:00 +8°C° 0 mm 1 m/s 714 mmHg 95%

19 Avril, Lundi

Heure Température Précipitation Vent Pression Humidité
00:00 +8°C° 0 mm 1 m/s 714 mmHg 95%
01:00 +8°C° 0 mm 1 m/s 714 mmHg 95%
02:00 +8°C° 0 mm 1 m/s 714 mmHg 95%
03:00 +8°C° 0 mm 1 m/s 714 mmHg 95%
04:00 +8°C° 0 mm 1 m/s 714 mmHg 95%
05:00 +8°C° 0 mm 1 m/s 714 mmHg 95%
06:00 +8°C° 0 mm 1 m/s 714 mmHg 95%
07:00 +9°C° 0 mm 2 m/s 714 mmHg 90%
08:00 +12°C° 0 mm 2 m/s 714 mmHg 85%
09:00 +13°C° 0 mm 2 m/s 714 mmHg 79%
10:00 +15°C° 0 mm 2 m/s 714 mmHg 73%
11:00 +16°C° 0 mm 3 m/s 715 mmHg 67%
12:00 +18°C° 0 mm 3 m/s 715 mmHg 61%
13:00 +18°C° 0.1 mm 3 m/s 714 mmHg 62%
14:00 +18°C° 0.1 mm 3 m/s 714 mmHg 63%
15:00 +18°C° 0.1 mm 4 m/s 714 mmHg 64%
16:00 +17°C° 0 mm 4 m/s 714 mmHg 67%
17:00 +15°C° 0 mm 4 m/s 714 mmHg 71%
18:00 +14°C° 0 mm 3 m/s 713 mmHg 74%
19:00 +13°C° 0 mm 4 m/s 713 mmHg 77%
20:00 +12°C° 0 mm 4 m/s 713 mmHg 79%
21:00 +11°C° 0 mm 4 m/s 713 mmHg 82%
22:00 +11°C° 0 mm 3 m/s 712 mmHg 82%
23:00 +10°C° 0 mm 3 m/s 712 mmHg 82%
Voir plus

Nous avons besoin de votre consentement

Meteoprog et ses fournisseurs de services peuvent stocker et accéder à des données personnelles telles que des cookies, des identifiants d'appareils ou d'autres technologies similaires sur votre appareil et traiter ces données pour personnaliser le contenu et les publicités, ainsi que pour fournir des fonctionnalités de médias sociaux et analyser le trafic.

  • Stocker et/ou accéder à des informations sur votre appareil

    Des cookies, des identifiants d'appareils ou d'autres informations peuvent être stockés ou accessibles sur votre appareil aux fins indiquées ci-dessus.

  • Annonces et contenus personnalisés, mesure des annonces et des contenus, connaissance de l'audience et développement de produits

    Les annonces et le contenu peuvent être personnalisés en fonction d'un profil. D'autres données peuvent être ajoutées pour mieux personnaliser les annonces et le contenu. Les performances des publicités et du contenu peuvent être mesurées. Il est possible d'obtenir des informations sur le public qui a vu les publicités et le contenu. Ces données peuvent être utilisées pour développer ou améliorer l'expérience de l'utilisateur, les systèmes et les logiciels.

En cliquant sur "J'accepte", vous autorisez l'utilisation de cookies, des identifiants d'appareils, des balises web ou d'autres technologies similaires. Vos paramètres peuvent être modifiés dans le navigateur de votre appareil.

Dans certains cas, des intérêts légitimes peuvent être invoqués plutôt qu'un consentement. Vous pouvez en savoir plus à ce sujet dans notre Politique de confidentialité et de cookies.